Location: STAR School
(35.3054°N, 111.2976°W)
Time: 23:26:27
(UTC-07:00)

Courier 1B - Visible Passes

Search period start: 20 May 2019 00:00
Search period end: 30 May 2019 00:00
Orbit: 962 x 1209 km, 28.3° (Epoch: 20 May)

Date Brightness Start Highest point End Pass type
(mag) Time Alt. Az. Time Alt. Az. Time Alt. Az.
24 May 9.5 04:27:45 10° S 04:31:21 15° SSE 04:34:54 10° ESE visible
25 May 9.6 03:35:59 10° SSE 03:37:48 11° SSE 03:39:36 10° SE visible
26 May 9.0 04:32:14 10° SSW 04:37:29 24° SSE 04:42:34 10° ESE visible
27 May 9.1 03:40:47 15° S 03:43:53 20° SSE 03:48:27 10° ESE visible
28 May 9.3 02:50:11 15° SSE 02:50:17 15° SSE 02:54:02 10° ESE visible
28 May 8.5 04:37:37 10° SW 04:43:41 34° SSE 04:49:29 10° ESE visible
29 May 8.7 03:46:25 19° SSW 03:50:02 29° SSE 03:55:40 10° ESE visible
